Погода в Ловозере

Россия / Мурманская область     68°00′16″N   35°00′50″E
темп.,
°C
ветер,
м/с
пор.,
м/с
влажн.,
%
обл.,
%
осадки,
мм/ч
давл.,
гПа
погр.,
м
23 мая, пн
пн2300:00−2юв46795 0.0 1018170
03:00−2юв33772 0.0 1018137
06:00−2вюв23745 0.0 1018198
09:000в22611 0.0 1018369
12:00+2в336068 0.0 1017503
15:00+3всв3459100 0.0 1017557
18:00+2всв3465100 0.0 1017521
21:000всв3475100 0.0 1017381
24 мая, вт
вт2400:00−2св2382100 0.0 1017243
03:00−2св2387100 0.0 1018186
06:00−2св2284100 0.0 1018265
09:00+1св2371100 0.0 1018415
12:00+3всв336326 0.0 1018581
15:00+5в33561 0.0 1017565
18:00+5в33581 0.0 1017440
21:00+3вюв33683 0.0 1018298
25 мая, ср
ср2500:00+1юв22805 0.0 101842
03:000юв228099 0.0 101846
06:00+2юв226996 0.0 1017191
09:00+6юв2357100 0.0 1016453
12:00+9юв334992 0.0 1015749
15:00+11юв4344100 0.0 1013934
18:00+11юв5446100 0.0 1012769
21:00+8юв6860100 0.0 1012303
26 мая, чт
чт2600:00+5ююв4573100 0.0 1012112
03:00+4ю347614 0.0 101175
06:00+5ю33680 0.0 1011285
09:00+7ююв34610 0.0 1009599
12:00+10юв44505 0.0 10081053
15:00+11вюв54455 0.0 10061357
18:00+10в545747 0.0 1005788
21:00+6всв4478100 0.0 1004286
27 мая, пт
пт2700:00+4св2392100 0.0 1004174
03:00+4ссз3690100 0.0 1001465
06:00+3ссз3696100 0.9 1000483
09:00+2ссз4594100 1.3 998525
12:00+3ссз3596100 0.1 997544
15:00+3ссз2396100 0.2 996412
18:00+4св1297100 0.0 995434
21:00+4вюв3498100 0.0 996455